Weather in Kapitonovka

Russia / Orenburg Oblast     51°57′27″N   54°07′04″E
temp.,
°C
wind,
m/s
gust,
m/s
humid.,
%
clouds,
%
prec.,
mm/h
press.,
hPa
HPBL,
m
6 march, sat
sat623:00−2nw5898100 1.4 1011379
02:00−8nnw229688 0.2 101221
05:00−10nnw129378 0.2 101421
08:00−11nnw128977 0.0 101521
11:00−8nnw118747 0.0 101641
14:00−5sw228441 0.0 1016216
17:00−5ssw119171 0.0 1015114
20:00−7ene0090100 0.0 101521
7 march, sun
sun723:00−7ene2290100 0.0 101330
02:00−7ne3596100 0.8 1010172
05:00−7nne5895100 1.9 1009327
08:00−9nne61094100 0.9 1008461
11:00−9n6989100 1.1 1010400
14:00−9nnw588228 0.0 1012337
17:00−9wnw368814 0.0 1013228
20:00−14wsw34890 0.0 101523
8 march, mon
mon823:00−15ssw469118 0.0 101686
02:00−13ssw6119871 0.1 1014273
05:00−10ssw8168985 0.1 1012507
08:00−9ssw101891100 0.1 1009685
11:00−6sw111894100 0.8 1008868
14:00−3sw101594100 0.8 10071018
17:00−2sw101495100 1.8 10071050
20:00−3sw91594100 0.6 1008895
9 march, tue
tue923:00−3sw81496100 1.4 1007824
02:00−2sw91496100 0.9 1007933
05:00−5w71287100 1.6 1008720
08:00−14w459333 0.0 101166
11:00−12wsw359317 0.0 1014175
14:00−10wsw459216 0.0 1015258
17:00−10wsw249343 0.0 1015192
20:00−14wsw229599 0.0 101520
10 march, wed
wed1023:00−15wnw119599 0.0 101620
02:00−15nne1293100 0.0 101520
05:00−15ne2393100 0.0 101431
08:00−14ne2495100 0.1 1013111
11:00−12nne4694100 0.8 1012260
14:00−12n6993100 0.3 1012394
17:00−13nnw71091100 0.4 1012441
20:00−16nnw71293100 0.0 1015381